| time (UTC) | temp F | wind direction | speed MPH | gust MPH | rain 1hr in | rain 24hr in | rain mn in | humidity % | barometer mb |
| 20260510082847 | 58 | 140 | 0.0 | 0.0 | 0.00 | 0.00 | 0.00 | 62 | 1010.2 |
| 20260510082345 | 58 | 130 | 0.0 | 0.0 | 0.00 | 0.00 | 0.00 | 62 | 1010.2 |
| 20260510081844 | 58 | 133 | 0.0 | 0.0 | 0.00 | 0.00 | 0.00 | 61 | 1010.2 |
| 20260510081340 | 58 | 121 | 1.0 | 1.0 | 0.00 | 0.00 | 0.00 | 62 | 1009.9 |
| 20260510080837 | 58 | 82 | 1.0 | 1.0 | 0.00 | 0.00 | 0.00 | 62 | 1009.8 |
| 20260510080331 | 58 | 106 | 1.0 | 1.0 | 0.00 | 0.00 | 0.00 | 61 | 1009.6 |
| 20260510075828 | 59 | 124 | 0.0 | 1.0 | 0.00 | 0.00 | 0.00 | 61 | 1009.4 |
| 20260510075326 | 59 | 61 | 2.0 | 2.0 | 0.00 | 0.00 | 0.00 | 63 | 1009.4 |
| 20260510074822 | 59 | 118 | 0.0 | 1.0 | 0.00 | 0.00 | 0.00 | 61 | 1009.3 |
| 20260510074320 | 59 | 68 | 1.0 | 1.0 | 0.00 | 0.00 | 0.00 | 63 | 1009.5 |
| 20260510073815 | 59 | 133 | 0.0 | 0.0 | 0.00 | 0.00 | 0.00 | 64 | 1009.2 |
| 20260510073312 | 59 | 127 | 0.0 | 1.0 | 0.00 | 0.00 | 0.00 | 62 | 1009.2 |
| 20260510072808 | 59 | 111 | 0.0 | 1.0 | 0.00 | 0.00 | 0.00 | 64 | 1009.3 |
| 20260510072306 | 59 | 99 | 0.0 | 1.0 | 0.00 | 0.00 | 0.00 | 64 | 1009.0 |
| 20260510071801 | 59 | 59 | 1.0 | 1.0 | 0.00 | 0.00 | 0.00 | 65 | 1009.0 |
| 20260510071257 | 59 | 80 | 2.0 | 2.0 | 0.00 | 0.00 | 0.00 | 66 | 1008.9 |
| 20260510070757 | 60 | 104 | 0.0 | 1.0 | 0.00 | 0.00 | 0.00 | 68 | 1008.7 |
| 20260510070253 | 60 | 110 | 1.0 | 1.0 | 0.00 | 0.00 | 0.00 | 68 | 1008.7 |
| 20260510065753 | 60 | 124 | 0.0 | 1.0 | 0.00 | 0.00 | 0.00 | 68 | 1008.7 |
| 20260510065250 | 60 | 105 | 0.0 | 1.0 | 0.00 | 0.00 | 0.00 | 71 | 1008.8 |
| 20260510064746 | 61 | 88 | 0.0 | 0.0 | 0.00 | 0.00 | 0.00 | 74 | 1008.7 |
| 20260510064244 | 61 | 121 | 0.0 | 0.0 | 0.00 | 0.00 | 0.00 | 74 | 1008.4 |
| 20260510063740 | 61 | 87 | 1.0 | 1.0 | 0.00 | 0.00 | 0.00 | 76 | 1008.7 |
| 20260510063236 | 61 | 94 | 0.0 | 0.0 | 0.00 | 0.00 | 0.00 | 77 | 1008.7 |
| 20260510062733 | 59 | 80 | 1.0 | 1.0 | 0.00 | 0.00 | 0.00 | 83 | 1008.3 |
| 20260510062229 | 60 | 142 | 0.0 | 0.0 | 0.00 | 0.00 | 0.00 | 92 | 1008.6 |
| 20260510061725 | 60 | 138 | 0.0 | 0.0 | 0.00 | 0.00 | 0.00 | 92 | 1008.6 |
| 20260510061222 | 60 | 140 | 0.0 | 0.0 | 0.00 | 0.00 | 0.00 | 92 | 1008.4 |
| 20260510060718 | 60 | 152 | 0.0 | 0.0 | 0.00 | 0.00 | 0.00 | 92 | 1008.4 |
| 20260510060215 | 60 | 153 | 0.0 | 0.0 | 0.00 | 0.00 | 0.00 | 92 | 1008.4 |
| 20260510055712 | 60 | 155 | 0.0 | 0.0 | 0.00 | 0.00 | 0.00 | 91 | 1008.4 |
| 20260510055210 | 60 | 130 | 0.0 | 0.0 | 0.00 | 0.00 | 0.00 | 90 | 1008.3 |
| 20260510054705 | 60 | 145 | 0.0 | 0.0 | 0.00 | 0.00 | 0.00 | 89 | 1007.8 |
| 20260510054201 | 60 | 147 | 0.0 | 0.0 | 0.00 | 0.00 | 0.00 | 89 | 1008.0 |
| 20260510053700 | 60 | 147 | 0.0 | 0.0 | 0.00 | 0.00 | 0.00 | 89 | 1008.2 |
| 20260510053157 | 61 | 147 | 0.0 | 0.0 | 0.00 | 0.00 | 0.00 | 89 | 1008.3 |
| 20260510052652 | 61 | 145 | 0.0 | 0.0 | 0.00 | 0.00 | 0.00 | 88 | 1008.1 |
| 20260510052149 | 61 | 145 | 0.0 | 0.0 | 0.00 | 0.00 | 0.00 | 88 | 1007.9 |
| 20260510051645 | 61 | 143 | 0.0 | 0.0 | 0.00 | 0.00 | 0.00 | 88 | 1008.2 |
| 20260510051141 | 61 | 141 | 0.0 | 0.0 | 0.00 | 0.00 | 0.00 | 88 | 1008.1 |
| 20260510050639 | 62 | 145 | 0.0 | 0.0 | 0.00 | 0.00 | 0.00 | 89 | 1007.9 |
| 20260510050136 | 62 | 145 | 0.0 | 0.0 | 0.00 | 0.00 | 0.00 | 88 | 1008.0 |
| 20260510045632 | 62 | 173 | 0.0 | 0.0 | 0.00 | 0.00 | 0.00 | 89 | 1008.0 |
| 20260510045129 | 62 | 145 | 0.0 | 0.0 | 0.00 | 0.00 | 0.00 | 88 | 1008.1 |
| 20260510044625 | 62 | 143 | 0.0 | 0.0 | 0.00 | 0.00 | 0.00 | 87 | 1008.0 |
| 20260510044123 | 62 | 179 | 0.0 | 0.0 | 0.00 | 0.00 | 0.00 | 88 | 1008.1 |
| 20260510043618 | 62 | 154 | 0.0 | 0.0 | 0.00 | 0.00 | 0.00 | 86 | 1008.2 |
| 20260510043115 | 62 | 154 | 0.0 | 0.0 | 0.00 | 0.00 | 0.00 | 85 | 1007.9 |
| 20260510042613 | 63 | 154 | 0.0 | 0.0 | 0.00 | 0.00 | 0.00 | 85 | 1007.7 |
| 20260510042108 | 63 | 175 | 1.0 | 1.0 | 0.00 | 0.00 | 0.00 | 85 | 1008.0 |
| 20260510041606 | 63 | 143 | 0.0 | 0.0 | 0.00 | 0.00 | 0.00 | 84 | 1007.9 |
| 20260510041103 | 63 | 234 | 2.0 | 2.0 | 0.00 | 0.00 | 0.00 | 82 | 1008.0 |
| 20260510040600 | 63 | 239 | 3.0 | 3.0 | 0.00 | 0.00 | 0.00 | 82 | 1007.9 |
| 20260510040056 | 64 | 197 | 1.0 | 1.0 | 0.00 | 0.08 | 0.08 | 82 | 1007.8 |
| 20260510035552 | 64 | 235 | 2.0 | 2.0 | 0.00 | 0.08 | 0.08 | 81 | 1007.9 |
| 20260510035052 | 64 | 238 | 2.0 | 2.0 | 0.00 | 0.08 | 0.08 | 81 | 1007.7 |
| 20260510034550 | 64 | 185 | 0.0 | 1.0 | 0.00 | 0.08 | 0.08 | 81 | 1007.7 |
| 20260510034047 | 64 | 187 | 1.0 | 1.0 | 0.00 | 0.08 | 0.08 | 80 | 1007.9 |
| 20260510033543 | 64 | 73 | 1.0 | 1.0 | 0.00 | 0.08 | 0.08 | 80 | 1008.0 |
| 20260510033041 | 65 | 251 | 2.0 | 2.0 | 0.00 | 0.08 | 0.08 | 78 | 1007.3 |
| 20260510032537 | 64 | 252 | 3.0 | 3.0 | 0.00 | 0.08 | 0.08 | 79 | 1007.8 |
| 20260510032033 | 64 | 250 | 3.0 | 3.0 | 0.00 | 0.08 | 0.08 | 79 | 1007.4 |
| 20260510031528 | 64 | 242 | 2.0 | 2.0 | 0.00 | 0.08 | 0.08 | 79 | 1007.5 |
| 20260510031024 | 64 | 242 | 2.0 | 2.0 | 0.00 | 0.08 | 0.08 | 79 | 1007.4 |
| 20260510030520 | 64 | 170 | 0.0 | 1.0 | 0.00 | 0.08 | 0.08 | 80 | 1007.4 |
| 20260510030017 | 63 | 242 | 2.0 | 2.0 | 0.00 | 0.08 | 0.08 | 80 | 1007.5 |
| 20260510025514 | 63 | 213 | 1.0 | 1.0 | 0.00 | 0.08 | 0.08 | 82 | 1007.3 |
| 20260510025012 | 62 | 207 | 0.0 | 0.0 | 0.00 | 0.08 | 0.08 | 83 | 1007.1 |
| 20260510024508 | 62 | 192 | 0.0 | 0.0 | 0.00 | 0.08 | 0.08 | 84 | 1007.3 |
| 20260510024004 | 62 | 159 | 0.0 | 0.0 | 0.00 | 0.08 | 0.08 | 85 | 1007.1 |
| 20260510023500 | 62 | 156 | 0.0 | 0.0 | 0.00 | 0.08 | 0.08 | 84 | 1007.2 |
| 20260510022957 | 62 | 158 | 0.0 | 0.0 | 0.00 | 0.08 | 0.08 | 84 | 1007.3 |
| 20260510022457 | 63 | 157 | 0.0 | 0.0 | 0.00 | 0.08 | 0.08 | 83 | 1007.1 |
| 20260510021956 | 63 | 196 | 1.0 | 1.0 | 0.00 | 0.08 | 0.08 | 82 | 1007.2 |
| 20260510021454 | 64 | 168 | 0.0 | 1.0 | 0.00 | 0.08 | 0.08 | 81 | 1007.0 |
| 20260510020951 | 64 | 189 | 0.0 | 1.0 | 0.00 | 0.08 | 0.08 | 80 | 1006.8 |
| 20260510020451 | 63 | 249 | 2.0 | 2.0 | 0.00 | 0.08 | 0.08 | 81 | 1007.0 |
| 20260510015946 | 63 | 192 | 1.0 | 1.0 | 0.00 | 0.08 | 0.08 | 82 | 1006.7 |
| 20260510015443 | 63 | 162 | 0.0 | 0.0 | 0.00 | 0.08 | 0.08 | 81 | 1006.5 |
| 20260510014938 | 63 | 176 | 0.0 | 0.0 | 0.00 | 0.08 | 0.08 | 82 | 1006.7 |
| 20260510014436 | 64 | 186 | 1.0 | 1.0 | 0.00 | 0.08 | 0.08 | 81 | 1006.5 |
| 20260510013932 | 63 | 186 | 1.0 | 1.0 | 0.00 | 0.08 | 0.08 | 82 | 1006.7 |
| 20260510013427 | 63 | 162 | 0.0 | 0.0 | 0.00 | 0.08 | 0.08 | 81 | 1006.4 |
| 20260510012923 | 64 | 190 | 0.0 | 1.0 | 0.00 | 0.08 | 0.08 | 81 | 1006.1 |
| 20260510012418 | 64 | 154 | 0.0 | 0.0 | 0.00 | 0.08 | 0.08 | 79 | 1006.1 |
| 20260510011913 | 65 | 148 | 0.0 | 0.0 | 0.00 | 0.08 | 0.08 | 78 | 1006.1 |
| 20260510011408 | 65 | 147 | 0.0 | 0.0 | 0.00 | 0.08 | 0.08 | 77 | 1006.2 |
| 20260510010904 | 66 | 214 | 1.0 | 1.0 | 0.00 | 0.08 | 0.08 | 75 | 1006.1 |
| 20260510010402 | 66 | 241 | 2.0 | 2.0 | 0.00 | 0.08 | 0.08 | 74 | 1006.0 |
| 20260510005858 | 65 | 218 | 1.0 | 1.0 | 0.00 | 0.08 | 0.08 | 76 | 1006.0 |
| 20260510005354 | 66 | 186 | 1.0 | 1.0 | 0.00 | 0.08 | 0.08 | 76 | 1006.0 |
| 20260510004852 | 66 | 193 | 1.0 | 1.0 | 0.00 | 0.08 | 0.08 | 75 | 1005.8 |
| 20260510004349 | 67 | 235 | 2.0 | 2.0 | 0.00 | 0.08 | 0.08 | 72 | 1005.9 |
| 20260510003847 | 68 | 236 | 2.0 | 2.0 | 0.00 | 0.08 | 0.08 | 72 | 1005.7 |
| 20260510003344 | 68 | 248 | 2.0 | 2.0 | 0.00 | 0.08 | 0.08 | 70 | 1005.6 |
| 20260510002842 | 68 | 252 | 3.0 | 3.0 | 0.00 | 0.08 | 0.08 | 69 | 1005.6 |
| 20260510002340 | 68 | 243 | 2.0 | 2.0 | 0.00 | 0.08 | 0.08 | 68 | 1005.7 |
| 20260510001837 | 69 | 254 | 2.0 | 2.0 | 0.00 | 0.08 | 0.08 | 67 | 1005.6 |
| 20260510001335 | 69 | 245 | 2.0 | 3.0 | 0.00 | 0.08 | 0.08 | 67 | 1005.6 |
| 20260510000831 | 69 | 249 | 3.0 | 3.0 | 0.00 | 0.08 | 0.08 | 66 | 1005.5 |
| 20260510000328 | 69 | 244 | 2.0 | 2.0 | 0.00 | 0.08 | 0.08 | 66 | 1005.4 |
| 20260509235825 | 69 | 171 | 0.0 | 1.0 | 0.00 | 0.08 | 0.08 | 67 | 1005.3 |
| 20260509235321 | 70 | 235 | 3.0 | 3.0 | 0.00 | 0.08 | 0.08 | 65 | 1005.3 |
| 20260509234817 | 70 | 264 | 3.0 | 3.0 | 0.00 | 0.08 | 0.08 | 65 | 1005.5 |
| 20260509234314 | 70 | 247 | 3.0 | 3.0 | 0.00 | 0.08 | 0.08 | 65 | 1005.2 |
| 20260509233812 | 70 | 235 | 3.0 | 3.0 | 0.00 | 0.08 | 0.08 | 65 | 1005.2 |
| 20260509233309 | 70 | 236 | 3.0 | 3.0 | 0.00 | 0.08 | 0.08 | 64 | 1005.2 |
| 20260509232805 | 70 | 261 | 3.0 | 3.0 | 0.00 | 0.08 | 0.08 | 67 | 1005.3 |
| 20260509232306 | 70 | 239 | 3.0 | 3.0 | 0.00 | 0.08 | 0.08 | 65 | 1005.1 |
| 20260509231759 | 71 | 249 | 4.0 | 5.0 | 0.00 | 0.08 | 0.08 | 63 | 1005.0 |
| 20260509231256 | 71 | 241 | 3.0 | 3.0 | 0.00 | 0.08 | 0.08 | 63 | 1005.2 |
| 20260509230754 | 71 | 230 | 2.0 | 2.0 | 0.00 | 0.08 | 0.08 | 64 | 1005.1 |
| 20260509230250 | 71 | 261 | 3.0 | 3.0 | 0.00 | 0.08 | 0.08 | 65 | 1005.0 |
| 20260509225745 | 71 | 272 | 5.0 | 6.0 | 0.00 | 0.08 | 0.08 | 62 | 1005.1 |
| 20260509225242 | 71 | 263 | 5.0 | 6.0 | 0.00 | 0.08 | 0.08 | 64 | 1005.4 |
| 20260509224737 | 71 | 251 | 4.0 | 5.0 | 0.00 | 0.08 | 0.08 | 65 | 1005.3 |
| 20260509224235 | 71 | 245 | 3.0 | 3.0 | 0.00 | 0.08 | 0.08 | 64 | 1004.9 |
| 20260509223732 | 71 | 242 | 3.0 | 5.0 | 0.00 | 0.08 | 0.08 | 66 | 1005.1 |
| 20260509223229 | 71 | 229 | 3.0 | 3.0 | 0.00 | 0.08 | 0.08 | 63 | 1005.2 |
| 20260509222726 | 71 | 255 | 6.0 | 7.0 | 0.00 | 0.08 | 0.08 | 63 | 1005.0 |
| 20260509222221 | 71 | 251 | 2.0 | 3.0 | 0.00 | 0.08 | 0.08 | 64 | 1004.9 |
| 20260509221717 | 72 | 144 | 3.0 | 5.0 | 0.00 | 0.08 | 0.08 | 63 | 1004.7 |
| 20260509221213 | 72 | 271 | 4.0 | 5.0 | 0.00 | 0.08 | 0.08 | 62 | 1005.0 |
| 20260509220709 | 72 | 269 | 3.0 | 5.0 | 0.00 | 0.08 | 0.08 | 64 | 1005.0 |
| 20260509220206 | 72 | 264 | 4.0 | 5.0 | 0.00 | 0.08 | 0.08 | 63 | 1004.9 |
| 20260509215701 | 72 | 281 | 3.0 | 3.0 | 0.00 | 0.08 | 0.08 | 63 | 1004.8 |
| 20260509215158 | 72 | 261 | 7.0 | 8.0 | 0.00 | 0.08 | 0.08 | 62 | 1004.8 |
| 20260509214655 | 72 | 253 | 3.0 | 5.0 | 0.00 | 0.08 | 0.08 | 63 | 1004.7 |
| 20260509214152 | 72 | 243 | 2.0 | 2.0 | 0.00 | 0.08 | 0.08 | 61 | 1004.8 |
| 20260509213649 | 73 | 268 | 2.0 | 2.0 | 0.00 | 0.08 | 0.08 | 61 | 1004.9 |
| 20260509213145 | 72 | 278 | 4.0 | 5.0 | 0.00 | 0.08 | 0.08 | 61 | 1004.7 |
| 20260509212642 | 72 | 270 | 5.0 | 7.0 | 0.00 | 0.08 | 0.08 | 55 | 1004.6 |
| 20260509212139 | 73 | 262 | 5.0 | 6.0 | 0.00 | 0.08 | 0.08 | 55 | 1004.4 |
| 20260509211635 | 73 | 249 | 5.0 | 6.0 | 0.00 | 0.08 | 0.08 | 55 | 1004.5 |
| 20260509211132 | 73 | 243 | 5.0 | 5.0 | 0.00 | 0.08 | 0.08 | 56 | 1004.6 |
| 20260509210629 | 74 | 246 | 4.0 | 6.0 | 0.00 | 0.08 | 0.08 | 56 | 1004.6 |
| 20260509210126 | 74 | 264 | 4.0 | 5.0 | 0.00 | 0.08 | 0.08 | 57 | 1004.6 |
| 20260509205620 | 73 | 211 | 2.0 | 2.0 | 0.00 | 0.08 | 0.08 | 57 | 1004.2 |
| 20260509205115 | 73 | 257 | 6.0 | 8.0 | 0.00 | 0.08 | 0.08 | 54 | 1004.6 |
| 20260509204612 | 73 | 212 | 4.0 | 6.0 | 0.00 | 0.08 | 0.08 | 58 | 1004.5 |
| 20260509204108 | 74 | 268 | 3.0 | 5.0 | 0.00 | 0.08 | 0.08 | 56 | 1004.5 |
| 20260509203604 | 74 | 220 | 3.0 | 3.0 | 0.00 | 0.08 | 0.08 | 57 | 1004.5 |
| 20260509203103 | 73 | 261 | 3.0 | 5.0 | 0.00 | 0.08 | 0.08 | 58 | 1004.5 |
| 20260509202603 | 73 | 267 | 6.0 | 7.0 | 0.00 | 0.08 | 0.08 | 54 | 1004.7 |
| 20260509202058 | 73 | 273 | 7.0 | 8.0 | 0.00 | 0.08 | 0.08 | 57 | 1004.7 |
| 20260509201553 | 74 | 263 | 7.0 | 8.0 | 0.00 | 0.08 | 0.08 | 57 | 1004.9 |
| 20260509201052 | 74 | 274 | 7.0 | 8.0 | 0.00 | 0.08 | 0.08 | 55 | 1004.9 |
| 20260509200551 | 73 | 235 | 3.0 | 5.0 | 0.00 | 0.08 | 0.08 | 55 | 1004.9 |
| 20260509200047 | 73 | 172 | 2.0 | 3.0 | 0.00 | 0.08 | 0.08 | 60 | 1005.1 |
| 20260509195543 | 73 | 250 | 6.0 | 7.0 | 0.00 | 0.08 | 0.08 | 59 | 1004.9 |
| 20260509195037 | 73 | 258 | 6.0 | 7.0 | 0.00 | 0.08 | 0.08 | 58 | 1005.0 |
| 20260509194532 | 73 | 254 | 3.0 | 5.0 | 0.00 | 0.08 | 0.08 | 61 | 1005.0 |
| 20260509194030 | 74 | 277 | 5.0 | 6.0 | 0.00 | 0.08 | 0.08 | 63 | 1005.3 |
| 20260509193530 | 73 | 310 | 4.0 | 5.0 | 0.00 | 0.08 | 0.08 | 65 | 1005.1 |
| 20260509193027 | 73 | 253 | 7.0 | 8.0 | 0.00 | 0.08 | 0.08 | 65 | 1004.8 |
| 20260509192524 | 73 | 244 | 3.0 | 5.0 | 0.00 | 0.08 | 0.08 | 70 | 1005.1 |
| 20260509192019 | 73 | 307 | 3.0 | 3.0 | 0.00 | 0.08 | 0.08 | 66 | 1005.1 |
| 20260509191514 | 73 | 259 | 4.0 | 6.0 | 0.00 | 0.08 | 0.08 | 66 | 1005.3 |
| 20260509191010 | 73 | 262 | 3.0 | 5.0 | 0.00 | 0.08 | 0.08 | 65 | 1005.2 |
| 20260509190507 | 73 | 267 | 5.0 | 6.0 | 0.00 | 0.08 | 0.08 | 68 | 1005.1 |
| 20260509190006 | 73 | 259 | 3.0 | 5.0 | 0.00 | 0.08 | 0.08 | 68 | 1005.1 |
| 20260509185502 | 72 | 252 | 5.0 | 6.0 | 0.00 | 0.08 | 0.08 | 66 | 1005.2 |
| 20260509184958 | 71 | 259 | 3.0 | 3.0 | 0.00 | 0.08 | 0.08 | 69 | 1005.3 |
| 20260509184457 | 71 | 269 | 5.0 | 7.0 | 0.00 | 0.08 | 0.08 | 69 | 1005.3 |
| 20260509183952 | 72 | 260 | 6.0 | 7.0 | 0.00 | 0.08 | 0.08 | 65 | 1005.2 |
| 20260509183447 | 71 | 249 | 3.0 | 3.0 | 0.00 | 0.08 | 0.08 | 70 | 1005.2 |
| 20260509182943 | 71 | 258 | 3.0 | 3.0 | 0.00 | 0.08 | 0.08 | 74 | 1005.3 |
| 20260509182440 | 71 | 262 | 3.0 | 3.0 | 0.00 | 0.08 | 0.08 | 68 | 1005.3 |
| 20260509181937 | 71 | 232 | 3.0 | 5.0 | 0.00 | 0.08 | 0.08 | 70 | 1005.5 |
| 20260509181435 | 70 | 224 | 3.0 | 5.0 | 0.00 | 0.08 | 0.08 | 74 | 1005.3 |
| 20260509180932 | 70 | 290 | 4.0 | 5.0 | 0.00 | 0.08 | 0.08 | 72 | 1005.4 |
| 20260509180428 | 70 | 257 | 5.0 | 6.0 | 0.00 | 0.08 | 0.08 | 69 | 1005.6 |
| 20260509175925 | 69 | 223 | 5.0 | 6.0 | 0.00 | 0.08 | 0.08 | 73 | 1005.5 |
| 20260509175421 | 70 | 262 | 5.0 | 6.0 | 0.00 | 0.08 | 0.08 | 71 | 1005.6 |
| 20260509174917 | 69 | 207 | 2.0 | 2.0 | 0.00 | 0.08 | 0.08 | 74 | 1005.4 |
| 20260509174413 | 69 | 269 | 5.0 | 6.0 | 0.00 | 0.08 | 0.08 | 73 | 1005.4 |
| 20260509173909 | 69 | 247 | 4.0 | 5.0 | 0.00 | 0.08 | 0.08 | 76 | 1005.3 |
| 20260509173403 | 68 | 251 | 5.0 | 6.0 | 0.00 | 0.08 | 0.08 | 72 | 1005.6 |
| 20260509172900 | 69 | 259 | 7.0 | 7.0 | 0.00 | 0.08 | 0.08 | 73 | 1005.6 |
| 20260509172357 | 68 | 255 | 3.0 | 3.0 | 0.00 | 0.08 | 0.08 | 76 | 1006.0 |
| 20260509171853 | 68 | 212 | 2.0 | 2.0 | 0.00 | 0.08 | 0.08 | 76 | 1005.8 |
| 20260509171349 | 67 | 258 | 3.0 | 3.0 | 0.00 | 0.08 | 0.08 | 76 | 1006.1 |
| 20260509170846 | 67 | 245 | 3.0 | 3.0 | 0.00 | 0.08 | 0.08 | 75 | 1006.0 |
| 20260509170341 | 67 | 268 | 3.0 | 5.0 | 0.00 | 0.08 | 0.08 | 79 | 1005.9 |
| 20260509165836 | 66 | 221 | 2.0 | 3.0 | 0.00 | 0.08 | 0.08 | 74 | 1005.9 |
| 20260509165331 | 67 | 264 | 5.0 | 7.0 | 0.00 | 0.08 | 0.08 | 80 | 1006.2 |
| 20260509164827 | 66 | 248 | 4.0 | 5.0 | 0.00 | 0.08 | 0.08 | 76 | 1006.1 |
| 20260509164323 | 67 | 293 | 5.0 | 7.0 | 0.00 | 0.08 | 0.08 | 77 | 1005.9 |
| 20260509163820 | 66 | 246 | 3.0 | 3.0 | 0.00 | 0.08 | 0.08 | 78 | 1006.0 |
| 20260509163316 | 66 | 237 | 4.0 | 5.0 | 0.00 | 0.08 | 0.08 | 78 | 1006.1 |
| 20260509162816 | 66 | 237 | 3.0 | 3.0 | 0.00 | 0.08 | 0.08 | 77 | 1006.0 |
| 20260509162309 | 66 | 215 | 2.0 | 2.0 | 0.00 | 0.08 | 0.08 | 78 | 1005.9 |
| 20260509161805 | 65 | 207 | 1.0 | 1.0 | 0.00 | 0.08 | 0.08 | 81 | 1006.0 |
| 20260509161301 | 64 | 217 | 2.0 | 2.0 | 0.00 | 0.08 | 0.08 | 78 | 1005.7 |
| 20260509160757 | 64 | 261 | 3.0 | 3.0 | 0.00 | 0.08 | 0.08 | 81 | 1005.9 |
| 20260509160253 | 64 | 254 | 5.0 | 6.0 | 0.00 | 0.08 | 0.08 | 81 | 1005.9 |
| 20260509155748 | 64 | 211 | 1.0 | 2.0 | 0.00 | 0.08 | 0.08 | 82 | 1005.9 |
| 20260509155245 | 63 | 251 | 4.0 | 6.0 | 0.00 | 0.08 | 0.08 | 82 | 1006.0 |
| 20260509154741 | 63 | 251 | 4.0 | 5.0 | 0.00 | 0.08 | 0.08 | 83 | 1005.9 |
| 20260509154239 | 64 | 258 | 3.0 | 3.0 | 0.00 | 0.08 | 0.08 | 84 | 1005.9 |
| 20260509153736 | 64 | 266 | 2.0 | 2.0 | 0.00 | 0.08 | 0.08 | 82 | 1006.0 |
| 20260509153231 | 63 | 243 | 3.0 | 3.0 | 0.00 | 0.08 | 0.08 | 81 | 1005.9 |
| 20260509152728 | 62 | 264 | 5.0 | 6.0 | 0.00 | 0.08 | 0.08 | 83 | 1006.1 |
| 20260509152225 | 61 | 255 | 4.0 | 5.0 | 0.00 | 0.08 | 0.08 | 85 | 1006.1 |
| 20260509151722 | 62 | 233 | 3.0 | 3.0 | 0.00 | 0.08 | 0.08 | 83 | 1006.2 |
| 20260509151218 | 63 | 282 | 4.0 | 5.0 | 0.00 | 0.08 | 0.08 | 86 | 1005.9 |
| 20260509150716 | 62 | 222 | 1.0 | 2.0 | 0.00 | 0.08 | 0.08 | 84 | 1005.8 |
| 20260509150214 | 62 | 210 | 2.0 | 3.0 | 0.00 | 0.08 | 0.08 | 84 | 1005.8 |
| 20260509145710 | 61 | 278 | 2.0 | 2.0 | 0.00 | 0.08 | 0.08 | 85 | 1005.8 |
| 20260509145206 | 61 | 249 | 3.0 | 3.0 | 0.00 | 0.08 | 0.08 | 86 | 1005.7 |
| 20260509144702 | 62 | 184 | 3.0 | 3.0 | 0.00 | 0.08 | 0.08 | 85 | 1005.8 |
| 20260509144159 | 61 | 262 | 3.0 | 3.0 | 0.00 | 0.08 | 0.08 | 87 | 1005.9 |
| 20260509143657 | 61 | 253 | 5.0 | 5.0 | 0.00 | 0.08 | 0.08 | 85 | 1005.8 |
| 20260509143154 | 63 | 214 | 2.0 | 2.0 | 0.00 | 0.08 | 0.08 | 86 | 1005.6 |
| 20260509142649 | 61 | 249 | 3.0 | 3.0 | 0.00 | 0.08 | 0.08 | 85 | 1005.4 |
| 20260509142147 | 61 | 280 | 3.0 | 5.0 | 0.00 | 0.08 | 0.08 | 87 | 1005.5 |
| 20260509141642 | 60 | 276 | 5.0 | 6.0 | 0.00 | 0.08 | 0.08 | 86 | 1005.6 |
| 20260509141138 | 61 | 268 | 2.0 | 2.0 | 0.00 | 0.08 | 0.08 | 88 | 1005.9 |
| 20260509140636 | 60 | 265 | 7.0 | 7.0 | 0.00 | 0.08 | 0.08 | 87 | 1005.7 |
| 20260509140134 | 59 | 143 | 0.0 | 0.0 | 0.00 | 0.08 | 0.08 | 94 | 1005.8 |
| 20260509135630 | 58 | 223 | 0.0 | 0.0 | 0.00 | 0.08 | 0.08 | 94 | 1005.8 |
| 20260509135128 | 58 | 203 | 0.0 | 0.0 | 0.00 | 0.08 | 0.08 | 96 | 1005.7 |
| 20260509134625 | 56 | 262 | 0.0 | 0.0 | 0.00 | 0.08 | 0.08 | 98 | 1005.7 |
| 20260509134122 | 57 | 224 | 0.0 | 0.0 | 0.00 | 0.08 | 0.08 | 99 | 1005.4 |
| 20260509133620 | 56 | 219 | 0.0 | 0.0 | 0.00 | 0.08 | 0.08 | 99 | 1005.5 |
| 20260509133117 | 56 | 252 | 0.0 | 0.0 | 0.00 | 0.08 | 0.08 | 99 | 1005.6 |
| 20260509132615 | 55 | 222 | 0.0 | 0.0 | 0.00 | 0.08 | 0.08 | 99 | 1005.4 |
| 20260509132113 | 55 | 244 | 0.0 | 0.0 | 0.00 | 0.08 | 0.08 | 99 | 1005.7 |
| 20260509131609 | 55 | 198 | 0.0 | 0.0 | 0.00 | 0.08 | 0.08 | 99 | 1005.7 |
| 20260509131106 | 55 | 190 | 0.0 | 0.0 | 0.00 | 0.08 | 0.08 | 99 | 1005.8 |
| 20260509130602 | 54 | 231 | 0.0 | 0.0 | 0.00 | 0.08 | 0.08 | 99 | 1005.8 |
| 20260509130058 | 55 | 244 | 0.0 | 0.0 | 0.00 | 0.08 | 0.08 | 99 | 1005.7 |
| 20260509125555 | 55 | 247 | 0.0 | 0.0 | 0.00 | 0.08 | 0.08 | 99 | 1005.7 |
| 20260509125051 | 55 | 189 | 0.0 | 0.0 | 0.00 | 0.08 | 0.08 | 99 | 1005.5 |
| 20260509124548 | 54 | 214 | 0.0 | 0.0 | 0.00 | 0.08 | 0.08 | 99 | 1005.6 |
| 20260509124045 | 54 | 187 | 0.0 | 0.0 | 0.00 | 0.08 | 0.08 | 99 | 1005.6 |
| 20260509123543 | 54 | 180 | 0.0 | 0.0 | 0.00 | 0.08 | 0.08 | 99 | 1005.6 |
| 20260509123039 | 54 | 197 | 0.0 | 0.0 | 0.00 | 0.08 | 0.08 | 99 | 1005.6 |
| 20260509122535 | 54 | 219 | 0.0 | 0.0 | 0.00 | 0.08 | 0.08 | 99 | 1005.7 |
| 20260509122033 | 54 | 220 | 0.0 | 0.0 | 0.00 | 0.08 | 0.08 | 99 | 1005.4 |
| 20260509121529 | 54 | 224 | 0.0 | 0.0 | 0.00 | 0.08 | 0.08 | 99 | 1005.4 |
| 20260509121027 | 53 | 168 | 0.0 | 0.0 | 0.00 | 0.08 | 0.08 | 99 | 1005.3 |
| 20260509120525 | 53 | 152 | 0.0 | 0.0 | 0.00 | 0.08 | 0.08 | 99 | 1005.3 |
| 20260509120023 | 53 | 171 | 0.0 | 0.0 | 0.00 | 0.08 | 0.08 | 99 | 1005.3 |
| 20260509115520 | 53 | 181 | 0.0 | 0.0 | 0.00 | 0.08 | 0.08 | 99 | 1005.2 |
| 20260509115017 | 52 | 161 | 0.0 | 0.0 | 0.00 | 0.08 | 0.08 | 99 | 1005.2 |
| 20260509114515 | 52 | 169 | 0.0 | 0.0 | 0.00 | 0.08 | 0.08 | 99 | 1005.2 |
| 20260509114014 | 51 | 157 | 0.0 | 0.0 | 0.00 | 0.08 | 0.08 | 99 | 1005.3 |
| 20260509113512 | 51 | 162 | 0.0 | 0.0 | 0.00 | 0.08 | 0.08 | 99 | 1005.3 |
| 20260509113010 | 51 | 145 | 0.0 | 0.0 | 0.00 | 0.08 | 0.08 | 99 | 1005.3 |
| 20260509112506 | 51 | 143 | 0.0 | 0.0 | 0.00 | 0.08 | 0.08 | 99 | 1005.1 |
| 20260509112002 | 51 | 143 | 0.0 | 0.0 | 0.00 | 0.08 | 0.08 | 99 | 1005.2 |
| 20260509111500 | 51 | 143 | 0.0 | 0.0 | 0.00 | 0.08 | 0.08 | 99 | 1005.2 |
| 20260509110957 | 51 | 142 | 0.0 | 0.0 | 0.00 | 0.08 | 0.08 | 99 | 1005.1 |
| 20260509110453 | 51 | 143 | 0.0 | 0.0 | 0.00 | 0.08 | 0.08 | 99 | 1005.1 |
| 20260509105951 | 51 | 143 | 0.0 | 0.0 | 0.00 | 0.08 | 0.08 | 99 | 1005.2 |
| 20260509105449 | 51 | 143 | 0.0 | 0.0 | 0.00 | 0.08 | 0.08 | 99 | 1004.9 |
| 20260509104946 | 51 | 143 | 0.0 | 0.0 | 0.00 | 0.08 | 0.08 | 99 | 1004.9 |
| 20260509104443 | 52 | 144 | 0.0 | 0.0 | 0.00 | 0.08 | 0.08 | 99 | 1004.8 |
| 20260509103940 | 52 | 143 | 0.0 | 0.0 | 0.00 | 0.08 | 0.08 | 99 | 1005.1 |
| 20260509103438 | 53 | 168 | 0.0 | 0.0 | 0.00 | 0.08 | 0.08 | 99 | 1004.8 |
| 20260509102936 | 53 | 162 | 0.0 | 0.0 | 0.00 | 0.08 | 0.08 | 99 | 1004.8 |
| 20260509102432 | 53 | 179 | 0.0 | 0.0 | 0.00 | 0.08 | 0.08 | 99 | 1005.2 |
| 20260509101928 | 53 | 183 | 0.0 | 0.0 | 0.00 | 0.08 | 0.08 | 99 | 1004.9 |
| 20260509101425 | 53 | 146 | 0.0 | 0.0 | 0.00 | 0.08 | 0.08 | 99 | 1004.9 |
| 20260509100923 | 53 | 152 | 0.0 | 0.0 | 0.00 | 0.08 | 0.08 | 99 | 1004.7 |
| 20260509100420 | 53 | 147 | 0.0 | 0.0 | 0.00 | 0.08 | 0.08 | 99 | 1004.7 |
| 20260509095916 | 53 | 147 | 0.0 | 0.0 | 0.00 | 0.08 | 0.08 | 99 | 1004.7 |
| 20260509095414 | 53 | 158 | 0.0 | 0.0 | 0.00 | 0.08 | 0.08 | 99 | 1004.8 |
| 20260509094910 | 53 | 165 | 0.0 | 0.0 | 0.00 | 0.08 | 0.08 | 99 | 1004.9 |
| 20260509094407 | 53 | 168 | 0.0 | 0.0 | 0.00 | 0.08 | 0.08 | 99 | 1005.0 |
| 20260509093905 | 53 | 183 | 0.0 | 0.0 | 0.00 | 0.08 | 0.08 | 99 | 1004.6 |
| 20260509093402 | 53 | 185 | 0.0 | 0.0 | 0.00 | 0.08 | 0.08 | 99 | 1004.8 |
| 20260509092900 | 53 | 169 | 0.0 | 0.0 | 0.00 | 0.08 | 0.08 | 99 | 1005.0 |
| 20260509092357 | 53 | 174 | 0.0 | 0.0 | 0.00 | 0.08 | 0.08 | 99 | 1005.1 |
| 20260509091856 | 53 | 167 | 0.0 | 0.0 | 0.00 | 0.08 | 0.08 | 99 | 1005.0 |
| 20260509091352 | 53 | 167 | 0.0 | 0.0 | 0.00 | 0.08 | 0.08 | 99 | 1004.9 |
| 20260509090850 | 53 | 166 | 0.0 | 0.0 | 0.00 | 0.08 | 0.08 | 99 | 1004.9 |
| 20260509090347 | 53 | 232 | 0.0 | 0.0 | 0.00 | 0.08 | 0.08 | 99 | 1004.7 |
| 20260509085844 | 54 | 166 | 0.0 | 0.0 | 0.00 | 0.08 | 0.08 | 99 | 1005.0 |
| 20260509085341 | 54 | 259 | 0.0 | 0.0 | 0.00 | 0.08 | 0.08 | 99 | 1005.2 |
| 20260509084837 | 54 | 220 | 0.0 | 0.0 | 0.00 | 0.08 | 0.08 | 99 | 1005.2 |
| 20260509084334 | 54 | 254 | 0.0 | 0.0 | 0.00 | 0.08 | 0.08 | 99 | 1005.2 |
| 20260509083832 | 54 | 243 | 0.0 | 0.0 | 0.00 | 0.08 | 0.08 | 99 | 1005.4 |
| 20260509083329 | 54 | 183 | 0.0 | 0.0 | 0.00 | 0.08 | 0.08 | 99 | 1005.1 |